EN

Hourly Weather Laczna

Today, 1 August, Sunday

Time Temperature Precipitation Wind Pressure Humidity
00:00 +17°C° 0 mm 2 mps 731 mmHg 90%
01:00 +17°C° 0 mm 2 mps 731 mmHg 90%
02:00 +17°C° 0 mm 2 mps 731 mmHg 89%
03:00 +16°C° 0 mm 1 mps 731 mmHg 87%
04:00 +16°C° 0 mm 1 mps 730 mmHg 86%
05:00 +18°C° 0 mm 1 mps 731 mmHg 79%
06:00 +20°C° 0 mm 1 mps 731 mmHg 72%
07:00 +20°C° 0 mm 0 mps 731 mmHg 65%
08:00 +22°C° 0.1 mm 1 mps 731 mmHg 66%
09:00 +22°C° 0.1 mm 1 mps 730 mmHg 66%
10:00 +21°C° 0.1 mm 2 mps 730 mmHg 67%
11:00 +23°C° 0.3 mm 2 mps 730 mmHg 68%
12:00 +23°C° 0.3 mm 2 mps 729 mmHg 69%
13:00 +24°C° 0.3 mm 2 mps 729 mmHg 69%
14:00 +21°C° 1.5 mm 3 mps 729 mmHg 77%
15:00 +20°C° 1.5 mm 4 mps 729 mmHg 85%
16:00 +17°C° 1.5 mm 5 mps 728 mmHg 93%
17:00 +18°C° 1.4 mm 4 mps 728 mmHg 94%
18:00 +17°C° 1.4 mm 4 mps 728 mmHg 95%
19:00 +16°C° 1.4 mm 3 mps 728 mmHg 96%
20:00 +16°C° 0.1 mm 3 mps 729 mmHg 96%
21:00 +16°C° 0.1 mm 3 mps 729 mmHg 97%
22:00 +14°C° 0.1 mm 3 mps 729 mmHg 97%
23:00 +14°C° 0.1 mm 3 mps 729 mmHg 96%

Tomorrow, 2 August, Monday

Time Temperature Precipitation Wind Pressure Humidity
00:00 +14°C° 0.1 mm 3 mps 729 mmHg 96%
01:00 +15°C° 0.1 mm 2 mps 729 mmHg 96%
02:00 +15°C° 0.1 mm 2 mps 729 mmHg 95%
03:00 +14°C° 0.1 mm 2 mps 729 mmHg 95%
04:00 +14°C° 0.1 mm 2 mps 729 mmHg 94%
05:00 +14°C° 0.5 mm 2 mps 730 mmHg 95%
06:00 +15°C° 0.5 mm 2 mps 730 mmHg 96%
07:00 +14°C° 0.5 mm 3 mps 730 mmHg 96%
08:00 +14°C° 0.4 mm 3 mps 731 mmHg 93%
09:00 +16°C° 0.4 mm 3 mps 731 mmHg 90%
10:00 +17°C° 0.4 mm 3 mps 731 mmHg 86%
11:00 +18°C° 0.2 mm 3 mps 732 mmHg 79%
12:00 +20°C° 0.2 mm 3 mps 732 mmHg 71%
13:00 +21°C° 0.2 mm 4 mps 732 mmHg 64%
14:00 +21°C° 0.3 mm 4 mps 732 mmHg 65%
15:00 +21°C° 0.3 mm 3 mps 732 mmHg 66%
16:00 +20°C° 0.3 mm 3 mps 732 mmHg 68%
17:00 +19°C° 0.1 mm 3 mps 732 mmHg 73%
18:00 +18°C° 0.1 mm 3 mps 733 mmHg 77%
19:00 +17°C° 0.1 mm 2 mps 733 mmHg 82%
20:00 +17°C° 0 mm 2 mps 733 mmHg 85%
21:00 +16°C° 0 mm 2 mps 733 mmHg 88%
22:00 +15°C° 0 mm 2 mps 733 mmHg 91%
23:00 +15°C° 0 mm 2 mps 734 mmHg 91%

Day after tomorrow, 3 August, Tuesday

Time Temperature Precipitation Wind Pressure Humidity
00:00 +14°C° 0 mm 2 mps 734 mmHg 91%
01:00 +14°C° 0 mm 2 mps 734 mmHg 92%
02:00 +14°C° 0 mm 2 mps 734 mmHg 92%
03:00 +14°C° 0 mm 2 mps 734 mmHg 92%
04:00 +13°C° 0 mm 2 mps 735 mmHg 92%
05:00 +15°C° 0 mm 2 mps 735 mmHg 87%
06:00 +16°C° 0 mm 2 mps 735 mmHg 82%
07:00 +17°C° 0 mm 3 mps 736 mmHg 78%
08:00 +19°C° 0.1 mm 3 mps 736 mmHg 70%
09:00 +20°C° 0.1 mm 3 mps 736 mmHg 62%
10:00 +22°C° 0.1 mm 4 mps 736 mmHg 54%
11:00 +22°C° 0 mm 4 mps 736 mmHg 49%
12:00 +24°C° 0 mm 3 mps 736 mmHg 45%
13:00 +25°C° 0 mm 3 mps 736 mmHg 40%
14:00 +25°C° 0 mm 3 mps 735 mmHg 41%
15:00 +25°C° 0 mm 2 mps 735 mmHg 41%
16:00 +25°C° 0 mm 2 mps 735 mmHg 41%
17:00 +24°C° 0 mm 2 mps 735 mmHg 47%
18:00 +22°C° 0 mm 1 mps 735 mmHg 52%
19:00 +21°C° 0 mm 1 mps 735 mmHg 58%
20:00 +20°C° 0 mm 1 mps 735 mmHg 60%
21:00 +18°C° 0 mm 2 mps 735 mmHg 62%
22:00 +18°C° 0 mm 2 mps 735 mmHg 63%
23:00 +17°C° 0 mm 2 mps 734 mmHg 66%

4 August, Wednesday

Time Temperature Precipitation Wind Pressure Humidity
00:00 +16°C° 0 mm 2 mps 734 mmHg 68%
01:00 +16°C° 0 mm 2 mps 734 mmHg 70%
02:00 +16°C° 0 mm 2 mps 734 mmHg 73%
03:00 +15°C° 0 mm 2 mps 734 mmHg 75%
04:00 +15°C° 0 mm 2 mps 733 mmHg 78%
05:00 +16°C° 0.2 mm 2 mps 734 mmHg 80%
06:00 +16°C° 0.2 mm 2 mps 734 mmHg 83%
07:00 +17°C° 0.2 mm 2 mps 734 mmHg 85%
08:00 +17°C° 0.9 mm 2 mps 734 mmHg 88%
09:00 +17°C° 0.9 mm 2 mps 734 mmHg 91%
10:00 +18°C° 0.9 mm 1 mps 734 mmHg 93%
11:00 +18°C° 0 mm 2 mps 734 mmHg 85%
12:00 +20°C° 0 mm 2 mps 734 mmHg 77%
13:00 +21°C° 0 mm 3 mps 734 mmHg 69%
14:00 +22°C° 0 mm 3 mps 734 mmHg 66%
15:00 +24°C° 0 mm 2 mps 733 mmHg 63%
16:00 +24°C° 0 mm 1 mps 733 mmHg 60%
17:00 +23°C° 0 mm 1 mps 733 mmHg 66%
18:00 +22°C° 0 mm 1 mps 733 mmHg 71%
19:00 +19°C° 0 mm 0 mps 733 mmHg 77%
20:00 +18°C° 0 mm 0 mps 733 mmHg 78%
21:00 +18°C° 0 mm 0 mps 733 mmHg 80%
22:00 +18°C° 0 mm 0 mps 733 mmHg 81%
23:00 +17°C° 0 mm 0 mps 732 mmHg 83%

5 August, Thursday

Time Temperature Precipitation Wind Pressure Humidity
00:00 +16°C° 0 mm 0 mps 732 mmHg 86%
01:00 +18°C° 0 mm 1 mps 732 mmHg 88%
02:00 +18°C° 0 mm 1 mps 732 mmHg 88%
03:00 +18°C° 0 mm 1 mps 732 mmHg 87%
04:00 +16°C° 0 mm 1 mps 732 mmHg 87%
05:00 +17°C° 0 mm 2 mps 732 mmHg 85%
06:00 +17°C° 0 mm 2 mps 732 mmHg 84%
07:00 +18°C° 0 mm 2 mps 732 mmHg 82%
08:00 +18°C° 0.1 mm 2 mps 732 mmHg 82%
09:00 +18°C° 0.1 mm 2 mps 732 mmHg 82%
10:00 +18°C° 0.1 mm 2 mps 732 mmHg 81%
11:00 +19°C° 0.1 mm 2 mps 732 mmHg 81%
12:00 +19°C° 0.1 mm 2 mps 732 mmHg 80%
13:00 +19°C° 0.1 mm 2 mps 732 mmHg 80%
14:00 +19°C° 0 mm 2 mps 731 mmHg 77%
15:00 +20°C° 0 mm 2 mps 731 mmHg 74%
16:00 +20°C° 0 mm 2 mps 731 mmHg 72%
17:00 +19°C° 0 mm 2 mps 730 mmHg 76%
18:00 +18°C° 0 mm 2 mps 730 mmHg 80%
19:00 +17°C° 0 mm 2 mps 730 mmHg 85%
20:00 +18°C° 0 mm 1 mps 730 mmHg 88%
21:00 +16°C° 0 mm 1 mps 730 mmHg 91%
22:00 +15°C° 0 mm 1 mps 729 mmHg 94%
23:00 +15°C° 0 mm 1 mps 729 mmHg 94%

6 August, Friday

Time Temperature Precipitation Wind Pressure Humidity
00:00 +15°C° 0 mm 1 mps 729 mmHg 95%
01:00 +14°C° 0 mm 1 mps 729 mmHg 95%
02:00 +14°C° 0 mm 1 mps 729 mmHg 96%
03:00 +14°C° 0 mm 1 mps 729 mmHg 96%
04:00 +13°C° 0 mm 1 mps 729 mmHg 96%
05:00 +15°C° 0 mm 1 mps 729 mmHg 92%
06:00 +16°C° 0 mm 2 mps 729 mmHg 88%
07:00 +17°C° 0 mm 2 mps 729 mmHg 84%
08:00 +18°C° 0.2 mm 2 mps 729 mmHg 78%
09:00 +20°C° 0.2 mm 2 mps 729 mmHg 72%
10:00 +21°C° 0.2 mm 2 mps 729 mmHg 67%
11:00 +21°C° 0.5 mm 2 mps 729 mmHg 64%
12:00 +22°C° 0.5 mm 3 mps 729 mmHg 61%
13:00 +24°C° 0.5 mm 3 mps 729 mmHg 58%
14:00 +22°C° 0.2 mm 3 mps 729 mmHg 58%
15:00 +22°C° 0.2 mm 3 mps 729 mmHg 57%
16:00 +22°C° 0.2 mm 3 mps 728 mmHg 56%
17:00 +21°C° 0 mm 2 mps 728 mmHg 60%
18:00 +20°C° 0 mm 2 mps 728 mmHg 64%
19:00 +20°C° 0 mm 1 mps 728 mmHg 69%
20:00 +19°C° 0 mm 1 mps 729 mmHg 70%
21:00 +19°C° 0 mm 1 mps 729 mmHg 71%
22:00 +18°C° 0 mm 1 mps 729 mmHg 72%
23:00 +18°C° 0 mm 1 mps 729 mmHg 72%
Show more